Regional Weather Roundup
Issued by NWS Pendleton, OR

Home | Current Version | Previous Version | Text Only | Print | Product List | Glossary On
Versions: 1 2 3 4 5 6 7 8 9 10 11 12 13 14 15 16 17 18 19 20 21 22 23 24 25 26 27 28 29 30 31 32 33 34 35 36 37 38 39 40 41 42 43 44 45 46 47 48 49 50
000
ASUS46 KPDT 100725
RWRPDT
PENDLETON REGIONAL WEATHER ROUNDUP
NATIONAL WEATHER SERVICE PENDLETON OREGON
1200 AM PDT THU JUL 10 2014

NOTE: FAIR INDICATES FEW OR NO CLOUDS BELOW 12,000 FEET WITH NO
SIGNIFICANT WEATHER AND/OR OBSTRUCTIONS TO VISIBILITY.

# INDICATES UNOFFICIAL STATION AND DATA

WAZ520-100810-
EAST SLOPES OF WASHINGTON CASCADES

CITY            SKY/WX      TMP DP  RH  WIND    PRES   REMARKS
#CLE ELUM HS    N/A         65  51  60  NW7     29.87S
#CLE ELUM LAKE  N/A         62  47  58  CALM    29.79S
#CLIFFDEL 2NW   N/A         62  50  65  N3      N/A
#GLENWOOD       N/A         62  54  75  CALM    29.77S
#MANASTASH CYN  N/A         64  28  25  CALM    29.88F
#NELSON         N/A         65  53  65  CALM    29.83R
#NELSON 3SW     N/A         64  38  38  CALM    29.99S
#NILE           N/A         64  49  58  CALM    29.11R
#RONALD 2NW     N/A         63  47  56  N2      29.83F
#TROUT LAKE 1NE N/A         66  52  61  W2      29.78S
$$

WAZ521-100810-
SIMCOE HIGHLANDS

CITY            SKY/WX      TMP DP  RH  WIND    PRES   REMARKS
#CENTERVILLE 4W N/A         68  54  61  NW12    29.62F
#CENTERVILLE 1SWN/A         68  54  61  W10     29.74R
#GOLDENDALE 1NE N/A         68  51  55  CALM    N/A
#GOLDENDALE 1S  N/A         66  56  70  CALM    29.84S
#GOLDENDALE 5WNWN/A         68  56  65  W12     29.75R
#GOODNOE HILLS  N/A         72  56  57  W12     29.77R
#LYLE 6NE       N/A         66  55  68  S3      29.77R
$$

WAZ026-100810-
KITTITAS VALLEY

CITY            SKY/WX      TMP DP  RH  WIND    PRES   REMARKS
ELLENSBURG AP   CLEAR       70  48  46  NW30G39 29.85S
#ELLENSBURG 3NE N/A         67  50  54  N12G25  29.86R
#ELLENSBURG 1E  N/A         67  44  43  CALM    N/A
#KITTITAS 3S    N/A         65  48  54  CALM    29.74R
#THORP 6N       N/A         64  48  56  NW18G32 29.77S
$$

WAZ027-100810-
YAKIMA VALLEY

CITY            SKY/WX      TMP DP  RH  WIND    PRES   REMARKS
YAKIMA AIRPORT  CLEAR       77  45  32  NW13    29.82R
YAKIMA-VAGABOND CLEAR       75  40  28  N13     29.84R
#COWICHE 1N     N/A         70  48  46  NW13    30.00R
#DONALD 2NE     N/A         76  33  21  NW5     30.10S
#GRANDVIEW      N/A         76  39  26  W2      29.73R
#MABTON         N/A         76  43  31  SW7     29.76R
#MOXEE 2E       N/A         75  24  15  W6      29.74R
#NACHES 2SW     N/A         70  48  46  W15G26  29.81S
#OUTLOOK DOT    N/A         N/A N/A N/A NW9     N/A
#SELAH 8E       N/A         64  34  33  E3      N/A
#TERRACE HTS    N/A         74  41  30  N7      29.70R
#TOPPENISH      N/A         78  45  31  N8      29.65R
#WAPATO 4NE     N/A         76  33  21  NW5     30.10S
#WEST VALLEY    N/A         74  47  38  N2      29.75S
#W YAKIMA       N/A         73  47  40  N3      29.73S
#WHITE SWAN 5E  N/A         71  50  47  CALM    29.73R
#WILEY CITY 3W  N/A         67  32  27  CALM    29.81R
$$

WAZ028-100810-
LOWER COLUMBIA BASIN...WASHINGTON

CITY            SKY/WX      TMP DP  RH  WIND    PRES   REMARKS
PASCO           CLEAR       80  43  27  VRB3    29.75R
PROSSER AWOS    N/A         72  43  35  SW8     29.79R
RICHLAND AWOS   CLEAR       75  43  32  NW10    29.74R
#BASIN CITY 5SW N/A         73  50  44  W7      29.75R
#BENTON CITY    N/A         76  51  42  N1      29.62R
#CONNELL 5N     N/A         71  50  47  W2      29.69R
#CONNELL 5NW    N/A         69  53  57  NW5     29.66R
#ELTOPIA 6NW    N/A         72  50  46  W7      28.73S
#KENNEWICK 3S   N/A         78  57  48  CALM    29.72R
#PASCO-BROADMOORN/A         80  45  29  SE2     29.59S
#PATERSON       N/A         74  58  57  N6      29.70R
#PROSSER        N/A         80  34  19  W5      29.71R
#SAGEMOOR 2W    N/A         74  49  41  N6      29.55R
#TOUCHET 2S     N/A         79  55  44  SW10    29.70R
#WEST PASCO     N/A         79  45  30  CALM    29.72R
$$

WAZ029-100810-
FOOTHILLS OF THE BLUES...WASHINGTON

CITY            SKY/WX      TMP DP  RH  WIND    PRES   REMARKS
WALLA WALLA AP  CLEAR       77  47  35  S9      29.81R
#COLLEGE PLACE  N/A         80  52  38  S5      29.77R
#LOWDEN 2SE     N/A         77  55  47  NW2     29.72R
#PLEASANT VIEW 1N/A         73  44  35  SW7     29.72R
#PRESCOTT       N/A         67  46  47  CALM    29.70R
#SUDBURY        N/A         70  N/A N/A E2      N/A
#WHITMAN COLLEGEN/A         76  50  40  SE3     29.78R
#WAITSBURG 8N   N/A         72  33  24  S2      29.65R
#WALLA WALLA 5E N/A         73  45  37  SE8     N/A
#WHITMAN MISSIONN/A         76  55  48  CALM    29.74R
$$

WAZ030-100810-
BLUE MOUNTAINS...WASHINGTON

CITY            SKY/WX      TMP DP  RH  WIND    PRES   REMARKS
$$

ORZ009-041-WAZ024-100810-
COLUMBIA RIVER GORGE

CITY            SKY/WX      TMP DP  RH  WIND    PRES   REMARKS
HOOD RIVER AP   CLEAR       70  54  57  W9      29.88R
THE DALLES AP   CLEAR       74  50  43  W7      29.81R
#ARLINGTON AIRPON/A         74  54  50  W14     N/A
#ARLINGTON HS   N/A         77  54  45  N6      29.65R
#CELILO DOT     N/A         76  50  40  S2      N/A
#MOSIER 1S      N/A         69  45  42  W9      29.91R
#MURDOCK        N/A         75  56  52  NW22G33 29.81R
#RUFUS DOT      N/A         77  55  47  NE3     N/A

$$

ORZ510-100810-
NORTH CENTRAL OREGON

CITY            SKY/WX      TMP DP  RH  WIND    PRES   REMARKS
#CHENOWITH 1W   N/A         67  47  49  W36     N/A
#COW CYN RST AREN/A         65  62  90  S3      N/A
#GRASS VALLEY 1SN/A         62  42  48  SW1     29.80R
#KENT DOT       N/A         60  32  35  S7      N/A
#MAUPIN SCHOOL  N/A         74  42  32  W2      29.88R
#MORO SCHOOL    N/A         68  52  57  CALM    29.88R
#SHANIKO 5WSW   N/A         64  35  34  SE12    N/A
#SHANIKO 4NW    N/A         66  34  30  S5      29.98R
#TYGH VALLEY 2NEN/A         69  43  39  N3      29.78R
#WAPANITIA AIRPON/A         68  43  40  W7      29.78R
#WASCO DOT      N/A         69  50  51  W7      N/A
#WASCO 5NE      N/A         69  49  49  W6      29.75S
$$

ORZ511-100810-
CENTRAL OREGON

CITY            SKY/WX      TMP DP  RH  WIND    PRES   REMARKS
BEND AIRPORT    PTCLDY      63  46  54  CALM    30.01R
MADRAS AIRPORT  PTCLDY      63  36  36  CALM    29.95R
REDMOND AIRPORT PTCLDY      63  44  50  SW6     29.97R
#BEND 6E        N/A         60  44  55  CALM    29.71R
#BEND 1SW       N/A         61  42  50  CALM    N/A
#BEND-AWBREY    N/A         66  48  52  CALM    29.77R
#BEND-KIM LN    N/A         63  50  62  CALM    29.97S
#CULVER         N/A         67  35  30  E1      29.91S
#LAKE BILLY CHINN/A         68   4   8  SE2     29.98R
#POWELL BUTTE   N/A         64  35  34  S1      29.64S
#PRINEVILLE 3N  N/A         64  36  35  NE1     29.73R


ORZ509-100810-
EAST SLOPES OF OREGON CASCADES

CITY            SKY/WX      TMP DP  RH  WIND    PRES   REMARKS
#BLUE BOX PASS  N/A         56   3  11  NW3     N/A
#BLACK BUTTE RNCN/A         63  51  65  CALM    29.75S
#CAMP SHERMAN   N/A         60  49  67  CALM    29.78S
#LA PINE DOT    N/A         60  43  53  CALM    N/A
#LA PINE 4NW    N/A         59  46  62  CALM    29.81R
#LAVA BUTTE DOT N/A         62  44  52  CALM    N/A
#SISTERS AIRPOR N/A         63  54  72  CALM    29.98R
#SISTERS ODOT   N/A         56  N/A N/A CALM    N/A
#SISTERS 3N     N/A         63  32  31  CALM    30.01R
#SUNRIVER       N/A         58  48  69  CALM    29.65R
#SUNRIVER AP    N/A         58  47  67  CALM    29.73R
#SUTTLE LK DOT  N/A         59  50  72  W16     N/A
#TUMALO 3W      N/A         67  44  43  CALM    29.67R
#WANOGA BUTTE D N/A         64  17  16  CALM    N/A

$$

ORZ044-100810-
LOWER COLUMBIA BASIN...OREGON

CITY            SKY/WX      TMP DP  RH  WIND    PRES   REMARKS
HERMISTON       CLEAR       77  52  42  SW10    29.76R
#BOARDMAN 8SW   N/A         74  55  51  SW8     29.73R
#IONE SCHOOL    N/A         76  47  36  SW7     29.82R
#IRRIGON 4NW    N/A         77  59  54  S15     N/A
#UMATILLA SCHOOLN/A         77  63  62  CALM    29.83R
#UMATILLA       N/A         76  53  45  CALM    29.72R
$$

ORZ507-100810-
NORTHERN FOOTHILLS OF THE BLUES

CITY            SKY/WX      TMP DP  RH  WIND    PRES   REMARKS
PENDLETON AIRPT CLEAR       75  46  36  W6      29.82R
#ADAMS 3WNW     N/A         70  49  47  CALM    29.73R
#ATHENA         N/A         74  49  41  W3      29.76R
#HELIX SCHOOL   N/A         74  50  43  W1      29.73R
#HELIX 3N       N/A         72  49  44  W7      29.83R
#M-F FERNDALE   N/A         76  51  42  CALM    29.79R
#M-F GROVE ELEM N/A         76  48  37  CALM    29.81R
#M-FREEWATER 5SEN/A         75  52  45  CALM    29.83R
#PDT AQUATIC CTRN/A         73  44  35  E3      29.83S
#PENDLETON DNTN N/A         73  42  33  N2      29.78S
#PDT SUNRIDGE   N/A         66  43  43  CALM    29.82R
#PENDLETON 7NW  N/A         76  52  43  CALM    28.36S
#PILOT ROCK     N/A         69  37  31  E1      29.87R
#TUTUILLA       N/A         68  46  45  CALM    29.69R
#UMAPINE 2E     N/A         77  55  47  S1      29.75R
#WESTON SCHOOL  N/A         71  45  39  W2      29.84R

$$

ORZ508-100810-
SOUTHERN FOOTHILLS OF THE BLUES

CITY            SKY/WX      TMP DP  RH  WIND    PRES   REMARKS
LEXINGTON       PTCLDY      73  43  34  SW9     29.87R
#AJAX           N/A         N/A N/A N/A W6      29.93R
#CONDON SCHOOL  N/A         69  38  32  S1      29.90R
#CONDON 5W      N/A         68  32  26  W12     29.91S
#FOSSIL SCHOOL  N/A         63  34  34  CALM    29.91R
#HEPPNER EOC    N/A         71  41  34  SW5     29.71R
#HEPPNER 4NE    N/A         69  44  40  S2      29.74R
#LEXINGTON 2SE  N/A         68  44  42  S6      29.81R
#MIKKALO        N/A         74  42  32  W10     29.87S
#OLEX 4N        N/A         74  48  40  W17G24  29.80S
#RUGGS 5NE      N/A         68  38  33  SW7     30.04F
#RUGGS 2SW      N/A         69  37  31  W2      29.78R

$$

ORZ502-503-100810-
BLUE MOUNTAINS

CITY            SKY/WX      TMP DP  RH  WIND    PRES   REMARKS
MEACHAM         CLEAR       52  46  80  CALM    29.97S
#BATTLE MTN DOT N/A         63  45  52  S2      N/A
#HARDMAN 10S    N/A         61  32  33  CALM    30.06R
#HEPPNER 15SE   N/A         64  35  34  CALM    29.90S
#LADD CYN SMT   N/A         56  49  77  E1      N/A
#LADD CREEK ODOTN/A         61  48  62  SW3     N/A
#LONG CREEK HS  N/A         62  40  44  S2      29.92R
#N POWDER DOT   N/A         61  54  78  CALM    N/A
#TOLLGATE 9W    N/A         64  39  40  E1      N/A
#TROY SCHOOL    N/A         69  49  49  W1      29.59R
#UKIAH          N/A         53  45  74  CALM    29.79R
#WESTON 4E      N/A         69  47  45  SW2     29.68R
$$

ORZ505-100810-
JOHN DAY BASIN

CITY            SKY/WX      TMP DP  RH  WIND    PRES   REMARKS
JOHN DAY        PTCLDY      68  55  63  SE9     29.98R
#JOHN DAY KJDY  N/A         67  61  81  CALM    29.85F
#MONUMENT HS    N/A         68  45  44  SE1     29.63R
#MT. VERNON 5SE N/A         68  52  57  CALM    29.95R
#WINLOCK        N/A         61  30  31  CALM    30.02S
$$

ORZ506-100810-
OCHOCO AND JOHN DAY HIGHLANDS

CITY            SKY/WX      TMP DP  RH  WIND    PRES   REMARKS
#BUCK CREEK DOT N/A         71  58  64  NW1     N/A
#HORSE RIDGE DO N/A         54  42  64  CALM    N/A
#KEYES SMT DOT  N/A         63  28  26  CALM    N/A
#PAULINA SCHOOL N/A         N/A N/A N/A CALM    29.98S
#PINE MTN OBS   N/A         63  28  26  CALM    N/A
#PRAIRIE CITY   N/A         57  52  83  E1      29.92R
#SENECA 9NW     N/A         53  51  93  CALM    29.76R
$$

ORZ049-100810-
GRANDE RONDE VALLEY

CITY            SKY/WX      TMP DP  RH  WIND    PRES   REMARKS
LA GRANDE       CLEAR       66  41  40  S3      29.89S
#COVE           N/A         67  56  68  SE1     29.83R
#COVE SCHOOL    N/A         65  53  65  CALM    29.89S
#COVE 6NW       N/A         61  52  72  CALM    29.78R
#ELGIN 3N       N/A         58  43  57  CALM    29.64R
#ELGIN 1E       N/A         61  50  67  CALM    N/A
#ISLAND CITY 4N N/A         59  48  67  CALM    29.69R
#LADD CYN DOT   N/A         68  43  40  SE15    N/A
#UNION 1S       N/A         71  54  55  CALM    29.64S
$$

ORZ050-100810-
WALLOWA COUNTY

CITY            SKY/WX      TMP DP  RH  WIND    PRES   REMARKS
JOSEPH AIRPORT  CLEAR       57  48  72  S6      29.99S
#ENTERPRISE HS  N/A         60  50  69  CALM    29.96S
#IMNAHA SCHOOL  N/A         75  50  41  SW1     29.80R
#IMNAHA 10S     N/A         69  51  53  SW5     29.91R
#JOSEPH 3N      N/A         54  47  77  CALM    29.99S
#LOSTINE        N/A         62  47  58  CALM    29.54S
#MT HOWARD 8000 N/A         60  34  37  SW5     30.24F
#PROMISE 1S     N/A         74  42  32  E2      29.80F
#SHEEP RDG 7000 N/A         63  42  46  CALM    29.72R
#WALLOWA SCHOOL N/A         59  48  67  CALM    30.62R



$$



USA.gov is the U.S. government's official web portal to all federal, state and local government web resources and services.